Wind_Speed
18 17 17 17 16 14 12 9 6 5 5 6 8 9 10 10 9 8 5 4 4 4 4 6 7 6 6 6 6 6 6 6 6 6 7 7 8 9 10 11 12 13 14 15 16 16 17 17 18
19 18 18 18 17 16 14 11 8 6 5 6 8 9 10 11 9 7 5 4 3 3 3 5 5 5 5 5 5 4 4 4 4 5 5 6 7 7 9 10 12 13 14 15 16 17 17 17 17
19 19 19 19 18 17 16 12 9 6 4 5 7 9 11 10 9 7 5 3 2 2 3 4 4 4 4 4 4 4 4 4 4 4 5 5 6 7 8 9 11 12 13 14 15 15 15 15 15
21 20 20 20 18 18 16 14 10 6 3 3 6 9 10 10 7 6 6 6 5 4 4 4 5 5 5 5 5 5 5 4 4 5 5 5 6 7 8 9 10 11 12 13 14 15 15 14 14
21 21 20 20 19 18 17 15 11 6 2 1 5 8 10 8 7 7 7 7 6 6 6 6 7 7 7 7 7 6 6 5 5 5 5 6 7 8 9 10 11 12 14 15 16 16 16 16 16
20 20 20 21 21 19 18 15 11 6 3 2 4 7 9 9 8 8 8 8 7 7 8 8 9 9 9 9 8 7 7 6 6 6 6 7 8 9 10 12 13 14 15 16 17 18 18 18 17
18 20 21 24 24 22 21 16 12 8 5 4 5 8 9 9 9 9 10 10 10 10 10 10 10 10 11 10 9 8 7 7 7 6 7 7 8 10 11 12 13 14 16 17 18 19 19 19 18
17 21 24 27 27 25 23 18 14 10 7 4 5 7 8 7 8 10 10 12 12 12 12 12 12 12 12 12 11 10 9 9 9 8 8 8 8 9 10 11 12 13 14 16 17 17 17 17 17
17 21 26 28 29 28 25 20 16 12 8 6 5 5 5 5 6 8 10 11 12 13 13 14 14 14 14 13 12 12 11 11 10 9 9 8 8 8 9 10 10 11 12 13 14 14 15 15 15
17 22 28 30 31 30 26 22 17 13 9 7 5 3 2 2 4 6 8 9 11 12 13 15 16 16 16 15 14 13 12 12 11 11 10 9 9 9 9 9 9 10 11 12 12 13 13 13 14
17 25 31 33 31 29 26 23 19 15 11 8 6 4 1 2 3 4 7 8 10 11 12 14 15 17 17 16 15 14 13 12 12 12 12 11 10 9 9 9 9 10 10 11 12 13 14 14 15
20 29 32 33 30 28 26 23 20 17 14 11 9 7 5 3 4 5 7 9 10 11 12 14 15 16 16 16 16 15 14 14 13 13 12 12 11 11 10 9 10 10 11 13 14 15 17 17 18
23 32 33 33 30 28 26 24 20 17 16 14 13 10 8 7 7 8 9 10 11 12 13 15 16 16 16 17 16 16 16 16 16 15 15 14 14 14 13 12 13 13 14 15 16 18 20 21 22
28 34 34 32 30 29 28 25 22 19 18 17 16 14 11 11 11 11 11 12 13 13 15 17 17 17 18 18 18 18 18 18 18 19 19 18 18 18 18 17 16 17 17 18 19 20 22 24 25
29 32 32 32 31 31 29 27 25 22 21 19 18 17 15 15 15 14 14 14 14 15 17 18 18 19 21 22 21 20 20 21 21 23 23 23 24 23 22 22 21 21 22 22 22 22 24 26 27
29 31 32 33 34 33 30 28 27 25 24 22 21 21 20 19 19 18 16 15 15 16 18 19 20 21 24 25 24 24 24 24 25 26 28 29 29 29 27 27 26 25 25 25 25 25 26 27 29
31 31 33 35 34 35 33 30 29 29 28 27 26 25 24 24 22 20 18 16 16 17 19 19 21 24 26 27 28 29 30 29 29 30 31 33 34 34 32 31 30 29 29 28 28 28 28 29 31
32 33 33 36 37 37 36 32 30 32 31 31 30 29 28 27 24 21 20 18 17 18 19 21 23 26 28 30 32 33 34 34 35 36 36 36 36 35 34 33 32 30 30 30 29 29 29 31 33
34 34 35 36 39 40 40 36 33 34 35 35 34 33 32 29 26 25 23 20 19 19 20 22 25 28 31 33 34 36 39 38 38 38 37 36 34 32 32 32 31 29 28 28 28 28 30 32 34
36 36 35 35 39 42 43 41 37 37 37 37 36 35 33 30 28 27 25 23 21 21 22 24 27 29 32 35 37 40 41 40 39 38 34 32 30 29 29 30 30 28 28 29 30 31 32 34 35
35 35 34 34 38 41 43 43 40 38 38 38 37 36 34 32 30 29 28 26 25 25 26 27 29 32 35 38 39 41 43 42 40 36 32 29 28 27 28 28 30 30 30 31 32 34 36 37 38
33 31 32 33 36 39 41 41 39 39 38 38 38 38 36 34 33 32 31 31 30 30 30 32 34 36 39 41 42 43 43 43 40 37 32 30 27 26 26 28 29 31 32 34 36 38 39 41 42
29 30 32 34 36 38 39 40 37 37 38 37 38 39 38 37 35 34 33 34 34 34 35 37 38 41 42 44 45 46 45 45 41 38 34 31 27 27 28 29 32 34 37 39 41 42 44 46 47
31 33 34 35 35 36 35 37 37 37 36 37 38 39 39 38 37 36 36 36 37 38 39 41 43 43 44 45 46 47 45 42 39 37 35 32 30 29 31 33 35 38 41 43 45 47 49 50 52
33 34 34 34 35 34 31 34 36 36 36 37 38 38 39 38 38 37 38 38 40 41 42 43 43 43 43 44 44 45 45 43 40 39 37 35 33 33 35 37 40 43 45 47 50 52 53 54 56
31 33 34 34 33 30 29 31 33 33 33 34 35 35 35 35 36 36 36 37 38 38 39 39 40 41 41 42 44 46 45 45 44 42 40 39 38 39 40 43 45 48 50 52 54 56 57 59 60
32 33 32 32 31 30 30 31 31 31 30 31 32 32 32 32 32 32 31 31 32 33 34 35 37 39 41 43 45 46 46 46 45 44 42 42 42 44 46 48 51 53 55 57 58 60 61 63 64
34 34 32 32 30 29 30 29 28 28 28 29 31 31 31 32 32 32 32 32 33 34 35 36 38 41 43 45 47 48 48 47 46 46 46 46 47 48 50 52 55 56 58 59 61 63 64 66 66
35 35 34 33 31 29 28 28 29 29 29 30 31 32 31 32 32 33 33 34 35 36 38 39 41 43 45 47 49 50 50 50 49 49 49 49 51 53 54 56 58 59 60 61 63 64 65 65 65
35 35 33 32 31 31 30 31 30 30 30 31 32 33 33 33 33 34 34 36 37 39 41 43 45 47 49 50 50 51 52 52 52 52 53 54 55 56 57 58 59 60 61 62 63 64 64 63 62
Wind_Direction
212 207 204 204 204 213 227 246 259 283 310 340 353 359 2 359 352 342 332 312 292 280 278 282 279 275 275 277 281 284 290 293 295 296 295 293 291 289 289 289 291 292 294 295 295 295 294 293 292
216 210 208 206 209 215 228 244 261 280 306 341 353 3 5 1 356 350 336 320 309 306 299 290 282 283 285 286 289 293 300 304 305 304 303 301 299 298 296 294 295 296 295 294 294 294 294 293 293
219 213 208 206 210 219 232 245 257 273 305 347 7 14 14 8 4 1 360 4 9 358 327 303 297 302 301 301 301 303 306 308 310 309 307 305 304 304 303 301 299 298 297 295 295 297 297 297 296
221 214 209 206 207 219 233 243 250 258 279 357 17 21 18 15 18 22 33 45 46 32 3 338 331 330 324 319 316 314 312 309 310 309 308 308 307 305 303 302 302 301 301 300 300 299 299 299 299
224 216 210 203 204 217 230 238 239 235 215 32 35 31 23 25 28 34 41 46 44 33 14 358 349 344 339 331 324 320 316 312 310 309 309 309 307 305 302 301 301 300 299 299 298 297 297 297 298
224 216 207 198 201 214 227 230 225 206 178 109 69 44 33 35 37 39 41 38 34 26 15 5 356 349 345 337 330 325 321 315 310 309 308 306 302 299 297 297 297 296 295 295 294 293 294 295 295
219 211 199 194 201 211 222 225 218 200 167 120 83 58 47 43 42 41 40 35 29 22 13 7 2 355 348 341 333 326 321 314 309 306 303 300 297 295 293 292 291 290 290 290 290 291 291 292 292
215 205 194 193 201 211 220 223 212 200 172 137 96 72 54 50 46 41 40 34 28 23 18 14 9 1 352 344 335 326 318 311 306 302 298 296 294 292 291 289 287 286 286 287 287 289 290 292 291
212 201 191 193 203 212 219 221 213 204 183 154 119 84 61 49 43 37 36 30 27 25 23 19 14 6 357 349 338 327 317 308 302 297 293 292 291 291 291 289 288 287 286 286 287 288 290 291 291
211 196 191 195 205 213 218 222 219 213 193 170 145 115 63 25 17 18 19 20 20 20 19 15 10 4 358 351 342 332 319 308 299 294 289 288 287 288 289 290 290 289 289 289 289 289 289 288 287
208 195 196 199 209 216 220 224 225 215 207 194 186 188 223 313 337 341 352 357 359 1 2 2 358 355 351 348 343 334 325 315 306 299 293 289 286 285 286 289 291 293 294 293 292 290 289 287 284
206 200 203 205 213 218 223 226 228 223 223 218 212 206 217 265 301 311 324 333 341 342 345 348 346 346 343 341 338 333 327 321 313 305 299 292 286 283 283 285 288 291 293 294 294 293 291 288 285
205 203 207 212 217 222 227 231 233 232 238 245 238 230 227 251 279 297 309 319 326 331 335 336 337 337 335 333 331 326 324 321 315 311 303 296 289 285 283 285 286 288 290 294 296 294 293 291 289
207 210 214 218 222 227 231 236 237 241 251 259 254 245 243 254 270 286 298 305 314 319 322 326 329 328 328 327 324 320 316 316 312 308 303 296 290 285 282 281 283 284 286 289 292 292 292 291 290
215 217 221 223 225 229 233 236 241 247 257 262 258 252 251 255 264 276 284 294 304 311 315 319 321 322 321 321 317 314 312 309 306 302 298 294 290 284 280 278 279 280 281 283 285 287 289 290 290
223 223 223 226 229 232 234 235 242 251 259 263 261 258 256 258 263 269 275 286 295 304 310 313 316 316 316 316 314 310 308 306 304 299 294 290 286 280 275 274 274 275 276 278 280 282 285 287 289
228 227 227 228 233 234 237 237 240 250 257 262 263 262 261 262 264 268 273 279 287 298 305 308 310 312 313 312 310 310 306 303 301 297 291 285 281 277 273 270 271 272 274 276 278 280 283 286 288
234 232 231 231 235 238 242 244 243 247 254 260 262 264 264 265 266 267 268 274 280 291 299 303 306 308 309 309 307 305 302 298 296 291 283 278 276 275 271 269 270 273 275 278 278 282 285 287 289
235 234 232 232 235 239 244 247 247 250 255 259 262 264 265 266 265 264 265 270 277 286 293 298 301 303 303 303 301 299 295 292 292 289 283 279 275 273 273 269 271 275 279 283 286 289 291 292 292
234 235 233 231 234 238 243 247 249 251 254 257 261 265 266 267 265 265 265 268 274 280 285 291 294 295 296 296 294 293 291 288 290 291 295 287 281 278 279 278 280 282 290 298 300 300 299 297 296
235 236 235 233 233 238 242 245 247 248 251 255 259 263 265 264 263 263 263 266 271 275 281 285 288 290 292 291 288 285 286 286 288 291 297 297 293 288 284 285 290 292 300 303 302 304 303 301 299
236 237 237 235 234 238 242 245 245 247 248 251 256 260 262 262 260 261 263 266 270 275 281 285 287 289 289 289 285 282 284 285 290 294 299 300 301 302 295 297 298 300 303 305 305 305 303 302 300
235 234 234 235 236 238 243 248 247 247 248 249 254 258 260 262 262 262 264 267 272 277 281 284 286 287 288 289 287 285 287 289 293 299 303 308 306 305 303 300 302 304 305 305 305 304 303 302 301
228 230 233 235 238 240 240 247 250 249 250 250 253 256 259 261 262 264 266 269 273 277 280 282 284 285 285 287 288 290 294 297 303 311 313 310 308 307 306 305 306 306 305 305 304 303 302 302 300
226 227 230 233 237 239 239 245 250 252 253 253 254 255 258 261 263 265 267 269 272 274 276 279 280 281 283 286 289 296 303 308 313 318 316 311 306 305 305 305 305 305 304 303 302 301 301 300 299
222 225 229 233 235 237 238 244 248 251 252 252 253 255 257 260 262 265 267 269 271 272 274 276 277 279 283 287 291 300 304 309 311 314 312 308 304 304 304 303 304 303 302 300 300 299 298 297 297
217 222 228 235 237 238 241 245 248 249 250 249 251 254 257 260 263 265 267 270 272 273 274 276 279 282 286 291 296 300 304 307 308 309 308 306 304 303 303 302 302 301 299 298 297 296 295 295 296
220 222 226 233 237 239 242 245 250 251 250 251 252 254 257 261 264 265 268 271 272 275 278 281 284 288 292 295 298 301 302 303 305 306 306 304 303 302 301 300 299 298 296 295 294 294 294 295 295
221 225 230 235 239 243 246 249 251 256 257 258 260 262 264 267 269 271 273 275 277 280 283 286 289 293 295 297 299 299 300 301 302 304 303 302 301 301 300 299 297 296 295 294 293 294 294 295 296
227 231 234 238 241 243 247 252 253 258 261 263 265 266 267 269 272 275 278 281 283 285 287 288 291 293 295 297 298 298 298 299 300 301 302 301 301 300 299 298 297 295 294 294 293 294 294 295 295
Height
5874 5876 5878 5881 5883 5885 5885 5886 5888 5888 5889 5888 5887 5886 5885 5885 5885 5886 5885 5883 5883 5883 5883 5883 5883 5884 5884 5884 5884 5884 5884 5885 5885 5885 5886 5887 5888 5888 5889 5890 5890 5891 5891 5891 5892 5892 5893 5893 5893
5872 5875 5877 5879 5881 5882 5884 5885 5887 5887 5888 5887 5886 5885 5884 5883 5883 5883 5882 5882 5882 5882 5882 5882 5883 5883 5882 5882 5882 5882 5883 5883 5883 5884 5884 5885 5886 5886 5887 5887 5888 5888 5888 5888 5889 5889 5889 5890 5890
5870 5872 5875 5877 5879 5881 5883 5885 5886 5887 5887 5886 5885 5884 5884 5883 5883 5882 5882 5881 5882 5882 5882 5882 5882 5882 5881 5881 5881 5881 5881 5881 5882 5882 5883 5883 5884 5884 5885 5885 5886 5886 5886 5886 5886 5886 5887 5887 5887
5867 5870 5873 5876 5878 5880 5881 5883 5885 5886 5887 5886 5885 5884 5884 5884 5883 5883 5882 5882 5881 5882 5882 5883 5882 5882 5881 5880 5880 5880 5880 5880 5880 5881 5881 5881 5882 5882 5883 5883 5883 5883 5883 5883 5883 5883 5884 5885 5885
5865 5868 5871 5874 5877 5878 5880 5881 5884 5885 5886 5885 5884 5884 5884 5885 5884 5883 5883 5882 5882 5882 5882 5882 5882 5881 5881 5880 5880 5879 5879 5879 5879 5879 5879 5880 5880 5880 5880 5880 5880 5880 5880 5880 5880 5880 5881 5881 5882
5863 5866 5869 5873 5875 5876 5878 5879 5882 5884 5884 5884 5884 5884 5885 5885 5885 5885 5884 5884 5883 5883 5882 5882 5881 5881 5880 5880 5879 5879 5879 5878 5878 5878 5878 5878 5878 5878 5878 5877 5877 5877 5877 5877 5876 5876 5877 5878 5878
5860 5863 5866 5870 5872 5874 5876 5878 5881 5882 5883 5883 5883 5883 5884 5885 5885 5885 5885 5884 5884 5883 5882 5882 5881 5880 5880 5879 5879 5878 5878 5877 5877 5877 5877 5876 5876 5876 5875 5875 5875 5874 5874 5873 5873 5873 5873 5874 5874
5858 5861 5864 5867 5870 5872 5874 5876 5879 5881 5882 5882 5882 5883 5884 5885 5885 5885 5885 5884 5884 5883 5882 5881 5881 5880 5879 5879 5878 5878 5877 5876 5876 5875 5875 5875 5874 5874 5873 5872 5872 5871 5871 5870 5870 5869 5870 5870 5870
5856 5860 5862 5865 5867 5869 5871 5874 5877 5879 5880 5881 5881 5882 5884 5885 5885 5885 5885 5884 5884 5883 5882 5881 5881 5880 5879 5878 5878 5877 5876 5876 5875 5874 5874 5873 5872 5872 5871 5870 5869 5869 5868 5867 5866 5866 5866 5867 5866
5855 5857 5860 5862 5864 5866 5869 5872 5875 5877 5879 5880 5880 5881 5882 5884 5884 5884 5884 5884 5883 5883 5882 5881 5881 5880 5879 5878 5877 5876 5875 5875 5874 5873 5872 5871 5870 5869 5868 5868 5867 5866 5865 5864 5863 5863 5863 5863 5863
5853 5855 5857 5859 5861 5864 5867 5871 5874 5876 5877 5878 5879 5880 5881 5882 5883 5883 5883 5883 5883 5882 5881 5881 5881 5880 5879 5878 5877 5876 5875 5873 5872 5871 5870 5869 5868 5867 5866 5865 5864 5863 5862 5861 5860 5860 5859 5859 5859
5851 5853 5854 5856 5858 5861 5865 5869 5872 5875 5876 5876 5877 5878 5879 5880 5881 5882 5882 5882 5882 5881 5881 5880 5880 5879 5878 5877 5876 5875 5873 5872 5871 5869 5868 5867 5866 5864 5863 5862 5861 5860 5859 5858 5857 5856 5856 5856 5855
5849 5850 5852 5854 5856 5859 5863 5866 5870 5873 5874 5875 5876 5876 5877 5879 5879 5880 5881 5881 5880 5880 5879 5879 5879 5878 5877 5876 5875 5873 5872 5870 5868 5867 5866 5864 5863 5862 5860 5859 5858 5857 5855 5854 5853 5852 5851 5851 5850
5845 5846 5848 5851 5854 5857 5860 5863 5867 5870 5872 5873 5874 5875 5876 5877 5878 5878 5879 5879 5878 5878 5878 5877 5877 5876 5874 5873 5872 5871 5869 5867 5865 5864 5862 5861 5859 5858 5856 5855 5854 5852 5851 5850 5849 5848 5847 5845 5844
5841 5844 5847 5850 5852 5854 5858 5861 5864 5866 5868 5869 5871 5872 5873 5874 5876 5877 5877 5876 5876 5876 5875 5875 5874 5873 5871 5870 5868 5866 5865 5863 5861 5859 5857 5856 5854 5852 5851 5850 5848 5847 5846 5845 5844 5842 5841 5840 5839
5839 5842 5845 5847 5849 5851 5856 5858 5860 5862 5863 5865 5866 5867 5869 5871 5872 5874 5874 5874 5873 5873 5872 5871 5870 5869 5867 5865 5864 5862 5859 5857 5855 5853 5851 5849 5847 5845 5843 5842 5841 5840 5839 5838 5837 5836 5835 5834 5833
5835 5838 5841 5844 5846 5847 5850 5854 5857 5857 5858 5860 5861 5862 5864 5866 5868 5869 5870 5870 5870 5870 5869 5868 5866 5864 5862 5860 5858 5856 5854 5851 5849 5846 5843 5840 5838 5836 5835 5833 5832 5832 5832 5831 5831 5830 5829 5828 5826
5832 5835 5837 5840 5841 5843 5845 5849 5853 5852 5853 5855 5856 5857 5859 5860 5863 5865 5866 5866 5866 5866 5865 5864 5862 5860 5857 5855 5852 5850 5847 5844 5841 5836 5833 5830 5828 5827 5825 5825 5824 5824 5825 5824 5823 5822 5821 5820 5819
5825 5829 5832 5836 5838 5838 5840 5843 5847 5848 5849 5850 5850 5852 5853 5855 5857 5859 5860 5861 5861 5861 5861 5859 5858 5855 5852 5849 5846 5843 5839 5835 5831 5827 5822 5820 5819 5818 5817 5817 5817 5817 5817 5817 5815 5814 5813 5812 5810
5818 5822 5826 5831 5832 5832 5834 5836 5841 5843 5844 5844 5845 5846 5847 5849 5850 5852 5853 5854 5855 5856 5855 5854 5852 5849 5846 5843 5839 5836 5831 5827 5824 5819 5816 5814 5812 5812 5811 5811 5811 5810 5809 5808 5807 5806 5804 5803 5801
5811 5815 5820 5823 5824 5825 5827 5830 5835 5838 5838 5839 5839 5840 5841 5842 5843 5845 5846 5847 5848 5848 5848 5847 5845 5843 5840 5837 5832 5828 5824 5820 5816 5813 5811 5808 5807 5806 5805 5804 5803 5802 5801 5800 5798 5797 5796 5793 5791
5806 5809 5812 5814 5817 5818 5820 5823 5828 5831 5833 5833 5833 5833 5834 5835 5837 5838 5839 5840 5840 5841 5840 5839 5838 5836 5833 5829 5824 5819 5814 5811 5808 5806 5804 5802 5800 5799 5798 5796 5795 5794 5793 5791 5790 5788 5786 5783 5781
5800 5801 5803 5806 5809 5812 5813 5816 5822 5824 5826 5827 5827 5827 5828 5829 5830 5832 5833 5833 5834 5834 5833 5831 5830 5828 5825 5821 5816 5812 5807 5804 5802 5799 5797 5795 5794 5793 5792 5790 5788 5787 5785 5783 5780 5778 5775 5772 5769
5792 5794 5796 5799 5802 5806 5809 5811 5814 5817 5819 5820 5820 5820 5821 5822 5823 5824 5825 5826 5826 5826 5825 5824 5822 5820 5817 5813 5809 5804 5799 5796 5792 5791 5790 5789 5788 5786 5785 5783 5781 5778 5776 5773 5770 5767 5763 5760 5756
5786 5789 5792 5795 5797 5801 5805 5806 5808 5809 5811 5812 5813 5813 5814 5815 5816 5817 5818 5818 5819 5818 5817 5816 5814 5812 5809 5805 5801 5796 5793 5790 5786 5784 5783 5782 5781 5780 5778 5775 5772 5769 5766 5763 5759 5755 5752 5748 5744
5782 5785 5788 5791 5793 5796 5799 5800 5802 5802 5804 5805 5805 5806 5807 5808 5809 5810 5811 5811 5811 5810 5809 5808 5806 5803 5801 5797 5794 5790 5786 5783 5780 5778 5777 5775 5773 5771 5769 5766 5762 5759 5755 5751 5747 5743 5739 5735 5730
5778 5780 5784 5786 5788 5791 5793 5794 5795 5796 5797 5798 5800 5800 5801 5802 5803 5804 5804 5804 5803 5803 5801 5800 5798 5795 5792 5789 5786 5783 5779 5776 5773 5771 5769 5767 5764 5762 5758 5755 5751 5747 5743 5739 5735 5730 5725 5720 5715
5774 5776 5779 5781 5783 5785 5787 5788 5790 5791 5792 5793 5794 5796 5797 5797 5798 5798 5798 5797 5796 5795 5793 5791 5789 5787 5784 5781 5777 5774 5771 5768 5765 5762 5759 5757 5754 5750 5747 5743 5739 5735 5730 5726 5721 5716 5710 5705 5700
5768 5771 5773 5776 5778 5780 5782 5786 5784 5785 5786 5788 5789 5790 5790 5791 5791 5791 5790 5789 5788 5786 5785 5782 5780 5777 5774 5771 5768 5765 5761 5758 5755 5752 5749 5745 5742 5738 5734 5730 5725 5721 5716 5711 5706 5700 5695 5689 5684
5762 5764 5768 5771 5773 5775 5777 5781 5779 5780 5781 5782 5782 5783 5783 5783 5783 5783 5782 5781 5780 5778 5776 5774 5771 5768 5765 5761 5758 5754 5751 5748 5744 5741 5737 5733 5728 5724 5720 5715 5711 5706 5700 5695 5690 5685 5679 5674 5668